GEFSCGP_con_prob3kmehi_306.txt.gz
EHI
0 0 0 0 0 0 0 0 0 0 0 0 0 0 2 5 5 4 6 6 4 1 1 1 1 1 1 3 5 7 7 6 5 3 2 2 1 1 0 0 0 0 1 3
0 0 0 0 0 0 0 0 0 0 0 0 0 0 2 4 5 5 6 6 4 2 1 1 2 3 4 5 8 9 8 8 6 5 5 4 3 2 0 0 0 0 1 2
0 0 0 0 0 0 0 0 0 0 0 0 0 1 2 3 4 5 6 6 4 1 0 2 4 5 5 6 9 11 11 11 10 9 8 7 6 2 0 0 1 1 1 1
0 0 0 0 0 0 0 0 0 0 0 0 0 1 2 2 3 5 6 7 5 2 1 3 5 6 5 5 6 10 13 14 13 12 12 10 6 2 0 1 2 2 1 1
0 0 0 0 0 0 0 0 0 0 0 0 0 1 1 1 1 3 6 7 7 4 2 3 5 5 4 3 3 7 13 16 15 15 14 10 6 3 2 3 4 3 3 2
0 0 0 0 0 0 0 0 0 0 0 0 0 0 0 0 0 1 4 6 6 6 5 5 6 7 6 3 3 8 14 17 16 15 12 9 7 6 6 6 5 4 3 3
0 0 0 0 0 0 0 0 0 0 0 0 0 0 0 0 0 1 3 5 5 6 8 10 11 12 11 8 7 12 18 19 16 14 11 9 9 10 9 8 7 6 4 4
0 0 0 0 0 0 0 0 0 0 0 0 0 0 0 0 0 1 3 4 4 5 9 13 14 15 14 12 11 15 19 20 17 15 14 13 12 12 10 9 8 7 5 4
0 0 0 0 0 0 0 0 0 0 0 0 0 0 0 0 0 1 2 2 3 6 9 11 12 13 13 13 13 15 18 20 18 17 16 14 13 11 9 8 7 7 6 5
0 0 0 0 0 0 0 0 0 0 0 0 0 0 1 0 0 2 2 2 3 6 8 9 10 11 12 12 13 15 17 17 17 15 14 12 11 10 9 8 7 7 6 6
0 0 0 0 0 0 0 0 0 0 0 0 0 0 0 0 0 1 3 3 4 6 8 9 11 13 14 13 12 13 14 14 13 13 11 10 10 11 10 10 10 9 8 8
0 0 0 0 0 0 0 0 0 0 0 0 0 0 0 0 0 1 3 5 7 10 11 13 15 17 16 14 11 11 12 11 11 12 12 12 12 12 12 11 11 11 10 9
0 0 0 0 0 0 0 0 0 0 0 0 0 0 0 0 0 1 4 8 12 15 15 16 18 20 20 19 14 11 9 9 10 11 12 13 14 13 12 11 11 10 9 8
0 0 0 0 0 0 0 0 0 0 0 0 1 1 1 0 1 2 5 10 14 16 16 16 19 23 25 24 20 15 11 10 9 10 12 14 15 14 13 12 11 11 9 8
0 0 0 0 0 0 0 0 0 1 1 1 2 2 1 1 2 3 7 11 14 15 15 15 20 24 26 27 25 22 18 16 15 15 15 16 16 17 17 16 15 16 15 13
0 0 0 0 0 0 0 0 0 1 1 1 2 2 1 1 3 5 7 10 13 14 15 16 21 24 26 28 28 26 24 24 23 21 19 17 18 20 20 19 18 19 21 20
0 0 0 0 0 0 0 0 0 0 1 1 2 1 1 1 3 5 7 8 10 13 16 19 23 26 28 29 29 27 27 29 28 23 20 18 17 18 19 18 18 20 24 26
0 0 0 0 0 0 0 0 0 0 0 1 2 2 2 2 4 5 7 8 9 12 17 21 23 26 29 30 30 29 29 30 28 25 22 20 17 17 17 17 17 20 24 28
0 0 0 0 0 0 0 0 0 0 0 0 1 2 2 3 4 6 10 11 10 12 17 19 19 20 26 31 32 31 30 29 28 26 24 21 18 18 18 19 19 20 24 28
1 1 0 0 0 0 0 0 0 0 0 0 1 1 2 2 3 6 11 13 11 13 18 20 18 19 25 31 32 30 27 26 25 23 22 21 22 22 22 22 22 23 25 26
2 1 0 0 0 0 0 0 0 0 0 0 0 0 1 2 3 5 9 12 13 15 19 22 23 25 28 31 29 27 24 22 21 20 20 23 25 26 25 25 25 25 25 25
1 1 0 0 0 0 0 0 0 0 0 1 1 1 1 2 3 5 8 11 14 16 20 23 25 28 30 30 28 25 22 19 17 17 18 22 26 27 27 28 28 26 25 24
1 1 1 1 0 1 1 0 0 0 1 2 2 2 2 2 3 5 8 11 13 15 18 22 25 27 29 28 26 23 21 18 15 14 14 16 21 24 25 27 26 25 24 23
1 1 1 2 1 1 2 1 1 1 2 3 4 4 3 3 3 5 7 9 12 15 18 20 22 24 27 27 24 21 20 18 15 13 13 13 15 18 20 20 20 21 21 21
1 1 1 1 1 1 2 3 2 2 4 5 4 4 3 2 2 3 5 7 10 14 17 19 19 21 24 24 22 20 19 18 15 13 12 12 12 14 15 16 16 16 17 15
1 0 0 1 0 0 2 4 3 3 5 5 5 4 3 2 2 2 3 6 9 11 14 17 18 19 20 20 20 19 18 17 15 12 11 11 12 13 14 14 14 14 13 11

GEFSCGP_con_prob3kmehi_312.txt.gz
EHI
0 0 0 0 0 0 0 0 0 0 1 2 2 2 4 5 4 7 14 19 17 13 14 16 17 17 22 29 31 27 23 22 22 19 17 15 12 9 7 7 9 11 11 9
0 0 0 0 0 0 0 0 0 0 0 1 2 2 3 4 4 6 13 19 19 17 18 21 21 21 27 34 34 31 29 27 23 20 18 16 15 12 8 9 14 16 14 13
0 0 0 0 0 0 0 0 0 0 0 1 2 2 3 4 5 6 12 18 20 19 23 27 28 27 31 37 37 37 36 32 26 22 18 16 17 14 10 12 17 19 18 17
0 0 0 0 0 0 0 0 0 0 0 1 2 3 4 5 6 8 11 15 18 20 26 32 35 33 32 35 38 42 43 38 30 23 18 16 15 12 10 13 17 19 19 19
0 0 0 0 0 0 0 0 0 0 0 0 1 2 3 6 8 9 10 12 15 19 26 33 37 36 33 32 38 45 48 44 35 25 21 18 14 11 10 12 16 19 20 20
0 0 0 0 0 0 0 0 0 0 0 0 0 1 2 5 8 9 9 10 11 14 21 29 35 38 34 32 38 46 52 49 39 29 24 21 18 15 13 14 16 16 18 19
0 0 0 0 0 0 0 0 0 0 0 0 0 1 3 4 5 7 9 10 10 10 16 25 34 39 37 36 41 50 53 49 42 33 27 24 22 19 17 16 15 13 14 15
0 0 0 0 0 0 0 0 0 0 0 0 0 2 3 2 3 6 8 9 9 10 14 23 33 40 41 41 45 51 52 48 40 34 29 26 23 19 17 16 15 12 11 12
0 0 0 0 0 0 0 0 0 0 0 0 1 2 3 1 2 5 7 7 8 11 15 21 29 37 42 45 48 50 52 47 38 31 28 27 23 20 17 17 16 14 13 14
0 0 0 0 0 0 0 0 0 0 1 0 1 2 2 1 2 5 8 9 9 10 14 21 27 34 40 45 48 49 50 46 35 27 25 24 24 24 22 21 19 18 19 21
0 0 0 0 0 0 0 0 0 0 1 0 0 1 1 0 3 7 12 13 12 11 14 19 25 31 36 42 46 48 47 42 32 25 23 22 24 26 26 24 23 24 27 30
0 0 0 0 0 1 0 0 0 0 1 0 1 1 1 2 5 10 15 17 16 14 16 18 24 30 35 39 44 46 45 38 31 27 24 23 25 26 26 25 27 31 34 35
0 0 0 0 0 0 0 0 0 0 0 1 2 3 3 5 9 13 16 17 18 18 19 21 28 34 38 40 43 45 43 37 32 29 26 25 27 29 28 28 31 35 37 37
0 0 0 0 0 0 0 0 0 0 0 1 3 5 5 7 10 14 15 16 18 21 22 26 34 39 40 41 44 45 40 35 33 32 30 30 33 36 35 34 35 36 37 36
0 0 0 0 0 0 0 0 0 0 1 1 3 5 7 9 10 14 16 17 19 22 24 28 37 41 40 40 43 43 38 35 36 37 37 38 40 42 41 40 39 39 36 34
0 0 0 0 0 0 0 0 0 1 2 3 3 5 8 9 10 13 17 19 21 24 25 27 33 39 40 40 43 44 41 38 39 39 39 40 42 42 42 42 42 42 37 32
1 1 1 0 0 0 0 0 0 1 3 4 4 5 7 9 10 12 15 18 22 25 26 25 25 32 39 42 45 47 45 42 41 39 38 40 41 41 40 39 41 42 40 36
1 2 2 0 0 0 0 0 0 1 2 3 4 5 6 9 11 12 14 17 21 26 28 25 23 28 36 42 45 46 46 45 42 40 39 41 42 42 40 37 37 39 40 40
1 2 1 0 0 0 0 0 0 1 2 4 6 6 6 8 10 11 14 17 20 25 27 26 25 28 34 40 43 44 45 45 43 41 39 39 39 39 39 38 37 36 37 38
0 0 0 0 0 0 0 0 0 1 3 6 7 8 7 7 8 10 13 17 20 24 27 28 28 31 38 42 43 41 41 41 41 40 38 35 34 35 36 37 38 37 36 36
0 0 0 0 0 0 1 1 3 6 8 8 8 8 8 8 9 12 15 18 21 25 28 30 32 38 44 46 43 40 37 37 37 37 36 34 31 31 33 37 41 40 38 37
0 0 0 0 1 3 5 6 9 13 13 11 10 9 10 10 11 14 18 21 23 26 28 30 34 40 44 44 41 38 36 35 34 34 34 32 30 28 29 36 41 42 41 39
0 0 1 2 3 7 10 11 12 14 15 13 12 11 11 10 11 15 21 25 26 27 28 29 32 36 37 37 36 36 36 35 35 34 33 30 28 26 26 31 35 38 38 36
0 0 2 4 6 7 9 9 9 11 14 13 12 12 12 10 11 18 26 28 27 26 27 27 29 30 30 29 30 32 34 36 36 34 30 26 24 23 24 25 26 27 29 28
1 1 3 6 6 5 5 5 6 9 12 12 11 11 11 10 13 20 26 26 23 22 24 25 27 27 27 26 26 28 31 33 33 30 26 22 20 21 22 21 19 18 18 18
3 3 4 5 6 6 6 4 4 7 9 10 10 10 11 11 14 19 24 24 20 19 22 24 25 25 24 24 25 27 30 30 30 28 24 20 18 20 23 20 17 13 12 11

GEFSCGP_con_prob3kmehi_318.txt.gz
EHI
0 0 0 0 0 0 0 0 0 0 0 0 0 0 1 3 6 6 6 5 6 6 7 10 14 16 17 16 14 12 11 10 9 8 6 4 2 0 0 0 1 2 3 3
0 0 0 0 0 0 0 0 0 1 1 1 1 0 1 3 6 7 6 5 6 7 9 13 16 18 19 18 15 13 11 9 8 7 6 5 3 1 1 1 1 2 3 3
0 0 0 0 0 0 0 0 1 2 2 2 1 0 0 3 7 8 7 7 7 8 12 16 19 21 22 19 15 13 10 8 7 6 6 6 5 4 2 1 1 1 3 3
0 0 0 0 0 0 0 0 1 1 1 1 1 0 1 4 8 9 9 10 10 11 13 16 20 24 25 22 17 13 11 10 8 8 7 7 6 5 3 1 1 2 3 4
0 0 0 0 0 0 0 0 0 0 0 0 0 0 2 5 8 9 9 11 12 13 15 17 20 24 26 25 22 18 14 12 11 10 9 7 6 5 3 2 3 5 6 5
0 0 0 0 0 0 0 0 0 0 0 0 0 1 2 4 6 6 6 9 12 14 16 19 21 23 25 29 28 23 18 14 14 13 11 9 8 7 5 5 6 8 7 6
0 0 0 0 0 0 0 0 0 0 0 0 0 1 2 2 3 5 6 8 11 13 16 20 23 25 28 30 31 29 24 18 15 14 13 11 10 9 7 7 7 8 7 6
0 0 0 0 0 0 0 0 0 0 0 0 0 1 1 1 2 5 7 9 11 13 16 20 23 27 30 32 32 32 28 21 16 14 14 13 11 10 9 7 8 8 7 6
0 0 0 0 0 0 0 0 0 0 0 0 0 0 0 1 4 9 11 12 12 14 16 18 20 24 30 34 34 31 29 23 17 13 12 12 11 10 9 8 7 7 7 6
0 0 0 0 0 0 0 0 0 0 0 0 0 0 0 2 8 15 18 17 15 14 14 14 16 21 28 34 33 31 28 23 17 12 10 9 9 10 9 8 8 7 7 7
0 0 0 0 0 0 0 0 0 0 0 0 0 0 1 4 11 18 21 18 14 11 10 10 13 19 27 32 32 30 26 22 18 14 10 8 8 9 10 9 10 10 9 9
0 0 0 0 0 0 0 0 0 0 0 0 0 0 2 6 11 16 16 13 10 9 9 10 13 18 24 28 29 29 26 22 20 16 12 9 9 10 11 12 12 13 12 10
0 0 0 0 0 0 0 0 0 0 0 0 0 1 3 7 11 12 10 8 8 9 10 11 13 16 18 21 24 27 26 22 19 17 14 12 12 12 12 13 14 14 12 11
0 0 0 0 0 0 0 0 0 0 0 0 1 3 5 7 8 8 7 8 10 13 13 13 13 12 12 15 20 24 25 22 18 16 14 12 12 13 13 14 13 12 12 13
0 0 0 0 0 0 0 1 1 0 1 2 3 4 5 6 6 6 6 9 12 13 14 14 13 11 9 12 17 20 23 22 21 20 16 13 12 12 13 13 12 11 12 13
0 0 0 0 0 0 0 1 1 1 2 3 4 5 6 6 6 6 7 8 10 11 11 13 14 13 13 13 15 17 19 22 25 24 20 16 15 14 12 11 11 11 11 12
0 0 0 0 0 0 0 1 1 1 1 2 2 4 6 6 6 7 8 9 10 11 11 13 15 17 18 16 15 16 18 22 26 26 23 21 20 16 12 10 11 11 11 12
0 0 0 0 0 0 0 0 0 1 2 1 2 4 6 6 7 8 10 12 13 14 15 15 17 19 21 19 16 17 21 24 26 26 26 25 23 19 15 13 11 10 11 12
0 0 0 0 0 0 1 1 1 1 2 3 5 7 8 8 9 10 11 13 14 14 16 17 18 19 21 20 18 18 22 25 25 25 25 24 23 21 17 14 13 11 11 13
0 0 0 0 0 0 1 3 2 1 2 4 7 9 9 9 10 10 10 11 12 13 15 16 17 19 20 20 20 21 23 23 22 22 22 21 21 21 19 17 15 14 13 13
0 0 0 0 0 0 1 3 2 0 1 3 5 6 8 11 11 11 11 11 11 13 14 15 16 17 18 19 21 23 23 20 19 20 20 19 19 20 20 19 18 16 14 13
0 0 0 0 0 0 1 1 1 1 1 2 3 5 9 14 15 15 15 14 12 12 13 15 14 14 15 16 18 20 20 18 18 18 19 18 18 18 18 19 18 16 15 15
0 0 1 1 1 1 1 2 2 3 3 4 5 7 12 15 17 18 18 15 13 11 13 15 14 14 13 13 13 14 15 15 16 16 17 17 16 14 14 15 16 15 15 16
1 1 2 3 3 3 3 3 4 5 5 6 6 8 12 14 14 16 15 13 11 11 13 15 16 15 12 10 10 10 11 12 13 14 15 15 14 12 11 12 14 14 14 13
2 3 4 4 4 5 5 5 5 6 6 6 7 9 11 11 10 11 11 9 7 8 11 13 15 13 9 7 7 8 10 10 11 12 13 14 12 11 10 10 10 10 10 10
3 3 4 5 5 5 5 4 4 5 5 6 7 9 10 9 9 9 9 7 4 5 8 12 12 9 7 5 5 7 9 10 10 11 12 12 11 10 10 9 8 7 7 8

GEFSCGP_con_prob3kmehi_324.txt.gz
EHI
0 0 0 0 0 0 0 0 0 0 0 0 0 0 0 1 3 3 2 0 0 1 0 0 0 0 0 0 1 1 1 0 0 0 0 0 0 0 0 0 0 0 0 0
0 0 0 0 0 0 0 0 0 0 0 0 0 0 0 1 2 2 2 1 1 2 1 0 0 0 0 1 1 1 0 0 0 1 1 1 0 0 0 0 0 0 0 0
0 0 0 0 0 0 0 0 0 0 0 0 0 0 0 0 1 2 3 3 2 3 3 1 1 2 1 1 1 1 0 0 1 2 3 3 2 2 2 2 1 0 0 0
0 0 0 0 0 0 0 0 0 0 0 0 0 0 0 0 1 1 2 3 3 3 3 2 2 3 3 2 1 0 0 0 1 3 5 5 5 5 4 4 4 2 0 0
0 0 0 0 0 0 0 0 0 0 0 0 0 0 0 0 0 0 1 2 3 3 3 3 3 3 3 3 1 0 0 0 1 4 6 6 6 6 6 6 6 4 2 1
0 0 0 0 0 0 0 0 0 0 0 0 0 0 0 0 1 1 2 3 3 3 4 4 4 3 3 3 1 0 0 0 2 5 6 6 6 6 7 8 8 7 4 2
0 0 0 0 0 0 0 0 0 0 0 0 0 0 0 0 1 2 3 4 4 4 5 6 5 4 5 5 4 3 2 2 3 5 6 6 6 6 7 8 8 7 5 4
0 0 0 0 0 0 0 0 0 0 0 0 0 0 0 0 1 3 4 5 6 6 6 6 5 5 7 10 11 9 6 6 7 7 6 5 4 5 6 5 4 3 3 3
0 0 0 0 0 0 0 0 0 0 0 0 0 0 0 1 2 5 6 8 9 8 8 7 5 4 7 14 16 13 9 8 9 9 7 6 5 4 5 3 1 1 1 2
0 0 0 0 0 0 0 0 0 0 0 0 0 0 0 1 3 5 7 9 10 9 9 8 5 4 7 13 15 13 11 9 9 10 9 7 5 5 4 3 1 0 1 2
0 0 0 0 0 0 0 0 0 0 0 0 0 0 0 1 3 5 7 9 9 9 8 7 5 3 6 11 13 13 11 10 10 9 8 6 3 3 4 4 3 2 2 2
0 0 0 0 0 0 0 0 0 0 0 0 0 0 1 2 4 5 7 8 8 7 6 4 3 2 5 10 12 12 12 11 10 9 7 4 2 2 3 5 6 5 4 3
0 0 0 0 0 0 0 0 0 0 0 0 0 1 2 4 6 7 8 7 5 4 3 2 1 1 4 8 10 11 13 13 12 11 9 7 4 2 3 6 7 7 6 5
0 0 0 0 0 0 0 0 0 0 0 0 0 1 3 5 6 7 8 6 4 3 1 1 1 2 4 5 5 8 11 12 12 13 14 11 8 6 6 7 7 7 7 7
0 0 0 0 0 0 0 0 0 0 0 0 0 1 2 4 5 6 6 4 3 3 2 2 2 3 3 2 3 6 10 12 13 16 16 14 11 9 8 7 6 5 6 6
0 0 0 0 0 0 0 0 0 0 0 0 0 0 1 4 5 7 5 3 2 2 3 5 5 5 4 3 5 7 10 13 16 17 16 13 11 9 7 6 5 4 3 4
0 0 0 0 0 0 0 0 0 1 1 2 1 1 1 4 7 9 7 4 3 3 5 7 7 7 6 6 7 8 11 14 17 18 16 13 10 8 6 6 5 3 2 3
0 0 0 0 0 0 0 0 0 1 2 3 3 2 3 5 7 9 9 7 6 6 7 7 8 7 7 7 8 9 11 14 17 18 16 13 10 7 6 5 4 2 1 2
0 0 0 0 0 0 0 0 0 0 1 3 4 6 7 7 7 7 8 8 9 8 8 7 6 6 7 7 7 9 9 11 15 16 14 11 8 7 6 5 4 3 2 1
0 0 0 0 0 0 0 0 0 0 0 2 6 8 8 7 4 4 6 8 8 8 6 5 4 5 6 6 6 6 7 9 12 13 11 8 7 5 5 6 6 5 4 3
0 0 0 0 0 0 0 0 0 0 0 2 4 5 5 4 3 4 6 8 8 6 5 4 3 4 5 5 4 3 3 5 8 9 8 7 6 4 4 6 7 8 7 7
0 0 0 0 0 0 0 0 0 0 0 1 3 3 3 3 3 6 8 8 7 6 5 5 4 3 4 4 2 2 1 2 3 6 7 7 6 5 5 6 8 9 8 7
0 0 0 1 1 1 1 1 1 1 1 1 3 4 4 4 4 7 8 8 7 6 5 4 4 3 3 3 4 3 3 2 4 6 7 7 7 6 7 7 7 8 8 7
0 0 1 2 2 3 3 2 1 2 2 3 4 5 6 4 4 6 6 5 6 6 5 3 3 3 4 5 6 6 5 5 6 7 7 8 8 8 7 7 7 7 8 8
0 0 1 2 3 3 4 4 3 4 4 4 5 6 6 5 4 5 4 3 4 6 6 4 3 3 4 5 6 6 6 6 6 6 5 6 7 7 7 7 6 7 7 7
0 1 2 2 2 3 4 5 5 5 5 6 6 6 6 6 5 5 4 2 2 5 6 5 4 3 4 4 4 4 4 4 4 4 4 4 5 6 6 6 6 5 4 4

GEFSCGP_con_prob3kmehi_330.txt.gz
EHI
0 0 0 0 0 0 0 0 0 1 4 5 4 4 4 4 3 2 2 4 5 5 2 0 1 4 7 8 6 5 3 1 0 0 1 1 2 3 3 3 2 3 3 3
0 0 0 0 0 0 0 0 0 1 3 4 3 3 2 2 2 1 2 3 4 5 3 2 2 4 7 8 7 6 4 2 0 1 2 3 4 4 3 3 3 3 4 4
1 0 0 0 0 0 0 0 0 1 2 2 2 2 1 1 1 1 2 3 3 4 5 4 4 4 6 7 7 7 5 3 2 2 3 4 5 4 2 2 3 4 4 4
1 1 0 0 0 0 0 0 0 0 1 1 2 3 2 1 0 1 2 3 3 4 4 4 5 6 5 6 7 7 6 5 4 4 4 4 3 2 0 0 2 3 4 5
1 1 1 1 1 1 0 0 0 0 0 0 1 2 2 1 0 1 3 3 4 4 3 2 4 5 6 8 9 10 10 10 9 8 7 6 4 2 1 1 2 3 4 5
0 0 0 1 1 1 0 0 0 0 0 0 1 1 1 1 1 2 3 3 4 4 3 1 2 3 5 9 12 13 15 18 15 12 10 8 6 5 5 4 4 4 4 4
0 0 0 0 1 1 0 0 0 0 0 0 0 0 1 1 1 3 4 4 4 5 5 4 3 2 5 10 13 14 17 20 18 13 10 8 6 7 8 7 5 5 3 2
0 0 0 0 0 0 0 0 0 0 0 0 0 0 0 1 1 3 4 5 6 7 8 8 6 4 4 9 14 16 17 19 18 13 10 8 6 7 7 6 5 5 3 2
0 0 0 0 0 0 0 0 0 0 0 0 0 0 0 1 3 4 5 6 8 10 11 10 10 7 5 8 14 17 19 20 20 16 11 9 8 7 6 5 6 5 5 4
0 0 0 0 0 0 0 0 0 0 0 0 0 0 0 2 6 7 7 8 9 11 11 11 12 10 7 8 12 17 19 22 23 19 13 9 9 8 8 7 8 8 8 8
0 0 0 0 0 0 0 0 0 0 0 0 0 0 1 3 8 10 9 9 11 12 11 11 11 11 10 10 14 17 19 22 24 21 14 9 8 9 10 11 12 12 12 12
0 0 0 0 0 0 0 0 0 0 0 0 0 0 1 4 8 10 10 11 12 12 11 10 10 10 11 12 15 18 20 21 22 21 16 11 8 8 9 12 15 16 15 15
0 0 0 0 0 0 0 0 0 0 0 0 1 1 3 6 9 11 12 14 14 11 9 8 8 9 11 12 15 18 19 19 20 21 19 14 9 7 8 11 14 16 16 16
0 0 0 0 0 0 0 0 0 0 0 1 2 3 4 7 11 13 14 14 13 11 9 9 10 10 10 11 14 17 19 19 20 21 20 17 12 9 9 11 13 14 15 15
0 0 0 0 0 0 0 1 1 1 0 1 3 4 6 8 12 14 13 12 12 12 11 13 14 13 12 12 16 19 21 22 22 22 21 18 14 10 10 11 12 12 13 14
0 0 0 0 0 0 1 2 2 2 2 2 4 7 8 10 13 14 13 12 13 13 14 15 16 15 14 15 18 21 23 25 26 26 24 22 18 14 12 12 11 9 10 12
0 0 0 0 0 0 1 2 2 3 3 4 5 7 8 9 12 14 15 15 15 16 15 14 13 14 14 14 16 19 22 26 28 28 27 25 23 21 17 13 10 9 10 13
0 0 0 0 0 0 0 1 1 2 3 4 6 7 7 7 9 12 15 18 18 17 16 13 11 11 12 13 13 15 19 24 26 26 25 25 26 25 21 15 12 12 15 17
0 0 0 0 0 0 1 1 1 0 2 4 6 7 7 6 6 10 15 20 22 20 17 14 11 10 12 13 14 14 16 20 22 22 20 22 25 25 21 17 14 15 18 19
0 0 0 0 0 0 2 2 1 0 1 4 7 8 7 6 8 12 17 21 24 23 19 15 13 12 13 15 16 16 16 17 18 19 17 18 20 21 19 18 16 17 18 17
0 0 0 0 0 1 3 4 3 3 4 5 6 8 9 11 14 18 21 22 22 21 18 16 16 17 16 16 17 17 16 14 14 14 15 14 15 15 16 18 18 17 16 16
1 1 1 1 1 2 3 3 3 5 6 6 7 9 12 16 20 22 23 22 19 17 15 14 16 17 17 16 17 17 15 12 9 10 13 14 13 12 14 17 16 15 15 15
3 3 3 3 4 4 3 2 2 4 5 5 7 9 12 16 19 22 22 20 17 14 11 10 11 12 13 14 14 15 13 10 8 9 12 15 14 12 13 15 15 14 15 16
6 5 5 5 4 4 3 3 2 3 3 3 5 7 11 15 17 19 20 19 16 12 9 8 9 11 11 11 12 13 13 10 8 10 12 14 14 12 12 13 14 14 14 15
6 6 5 4 4 3 3 3 3 3 3 2 2 5 10 12 14 15 17 16 13 9 7 7 9 11 12 11 12 13 12 11 9 9 12 13 12 12 13 13 13 13 12 11
5 6 6 5 4 3 3 3 3 3 3 2 1 4 8 10 12 13 14 13 10 6 4 5 8 11 12 12 12 12 11 11 11 9 11 12 11 12 13 13 13 13 11 9

GEFSCGP_con_prob3kmehi_336.txt.gz
EHI
0 0 0 0 0 0 1 1 1 1 3 3 3 3 4 4 4 5 7 9 11 13 16 18 17 15 19 27 29 23 17 16 16 14 12 12 12 12 12 11 12 13 12 12
0 0 0 0 0 0 0 0 1 2 3 3 3 3 4 4 5 7 8 10 11 14 19 21 21 19 21 28 32 27 21 19 18 16 16 16 15 14 12 11 13 14 14 13
0 0 0 0 0 0 0 0 1 2 3 2 2 3 4 4 6 8 11 11 11 14 21 24 25 23 22 28 32 30 27 24 21 19 17 17 16 13 10 10 13 15 15 14
0 0 0 0 0 0 0 0 1 2 3 2 2 3 4 5 6 8 12 13 12 14 21 25 26 25 25 26 30 31 30 28 25 21 18 15 14 11 8 8 11 14 16 17
0 0 0 0 0 0 0 0 0 1 2 2 2 2 3 5 6 9 12 14 14 15 20 25 27 27 26 25 26 29 31 32 30 26 21 18 15 13 11 10 11 13 18 21
0 0 0 0 0 0 0 0 0 0 1 1 1 1 1 4 6 10 13 14 14 15 18 23 27 28 28 26 24 27 34 38 36 30 23 20 19 18 16 13 12 13 17 21
0 0 0 0 0 0 0 0 0 0 0 0 1 1 1 3 6 11 15 14 13 14 16 21 26 29 30 28 28 32 39 42 38 31 26 23 22 21 18 15 12 12 14 16
0 0 0 0 0 0 0 0 0 0 0 0 2 2 2 3 7 12 15 15 14 14 16 19 23 26 28 31 36 42 46 45 39 34 30 28 24 19 17 16 14 13 13 13
0 0 0 0 0 0 0 0 0 0 0 1 3 4 5 5 7 12 15 14 13 13 15 18 19 21 24 31 40 47 50 50 46 40 35 31 26 19 16 17 18 17 17 17
0 0 0 0 0 0 0 0 0 0 0 1 2 4 5 6 9 12 14 12 11 11 15 17 17 17 20 28 39 47 52 56 53 46 38 32 27 22 17 19 20 21 23 25
0 0 0 0 0 0 0 0 0 0 0 0 1 1 3 7 11 13 14 13 12 12 15 17 16 14 17 25 36 45 51 56 55 48 41 35 31 26 22 21 22 23 26 28
0 0 0 0 0 0 0 0 0 0 0 0 0 0 1 6 10 14 16 16 15 14 15 17 17 18 21 26 35 42 47 51 52 47 40 36 35 33 29 26 26 27 27 27
0 0 0 0 0 0 0 0 0 0 0 0 0 0 2 5 9 13 16 17 18 17 16 18 22 27 30 34 39 42 44 46 46 44 39 39 41 40 35 30 29 29 28 27
0 0 0 0 0 0 0 0 0 0 0 0 1 1 2 5 9 13 15 17 18 18 18 20 28 35 39 42 44 43 42 42 43 43 42 44 46 45 39 34 32 31 29 27
0 0 0 0 0 0 0 0 0 0 0 0 1 1 2 6 11 13 13 15 16 18 19 21 26 34 39 41 42 42 41 42 44 45 45 46 47 45 42 37 36 35 32 28
0 0 0 0 0 0 0 0 0 0 0 0 2 3 5 10 15 15 14 16 17 20 23 24 25 30 34 34 34 37 39 42 45 45 46 47 46 45 43 40 38 37 34 32
0 0 0 0 0 0 0 0 0 0 0 2 5 8 11 16 20 18 19 23 23 26 30 31 30 30 31 30 30 32 34 38 42 45 47 48 48 47 46 43 40 37 35 34
1 1 1 0 0 0 0 0 0 1 2 4 9 12 14 18 19 18 22 27 30 31 34 34 34 34 32 29 29 29 30 35 40 44 46 48 49 49 48 45 40 37 34 32
1 1 1 0 0 0 1 1 1 2 4 7 10 13 14 14 13 16 23 28 31 32 33 32 31 31 30 30 31 29 29 32 37 40 43 45 47 48 48 45 40 35 31 29
0 0 0 0 0 0 1 2 2 3 6 10 13 15 16 16 17 22 27 30 31 29 28 27 25 23 25 30 33 33 31 31 32 35 38 41 43 46 46 43 37 32 28 26
0 0 0 0 0 1 2 3 4 7 11 15 16 17 20 23 26 30 34 32 31 28 24 21 20 18 21 26 31 35 35 34 33 33 35 37 38 38 38 37 34 30 27 25
1 1 1 1 2 4 5 7 10 14 17 16 15 16 20 25 28 32 34 32 30 27 22 20 19 17 17 22 28 32 35 36 35 34 34 33 31 28 28 29 29 27 25 22
3 3 4 4 4 6 8 11 14 16 17 15 13 14 17 20 23 26 28 29 28 25 23 22 19 16 16 20 24 28 30 32 31 29 29 29 28 25 25 26 26 25 23 21
4 3 6 7 6 6 7 9 10 11 10 10 10 12 14 16 19 20 22 25 26 25 24 22 18 15 14 16 20 24 26 27 24 21 21 23 24 25 27 28 26 23 20 19
5 5 7 9 8 7 6 5 5 5 5 7 9 12 14 16 16 15 17 20 23 23 22 19 16 14 13 13 17 22 24 24 22 19 18 17 16 18 23 25 22 18 16 15
5 7 9 11 10 8 7 4 3 4 5 8 11 14 16 17 15 14 15 18 19 20 20 17 14 13 12 13 16 21 23 23 22 21 19 14 11 11 16 21 18 13 11 12

GEFSCGP_con_prob3kmehi_342.txt.gz
EHI
0 0 0 0 0 0 0 0 0 0 1 1 1 1 2 5 6 5 4 4 6 8 12 15 16 18 17 14 10 7 6 4 3 3 2 1 0 0 0 0 0 1 2 3
0 0 0 0 0 0 0 1 1 0 0 1 1 1 2 3 5 5 4 4 5 9 13 16 17 19 18 15 11 8 6 5 3 3 2 1 0 0 0 0 0 1 2 3
0 0 0 0 0 0 1 2 2 1 0 0 1 1 1 2 3 4 3 3 4 7 12 15 16 18 19 17 13 11 9 7 5 4 3 1 1 1 0 0 0 1 3 4
0 0 0 0 0 0 1 2 3 1 0 0 0 0 0 2 3 3 3 4 5 7 9 11 13 16 18 19 16 13 12 10 8 5 4 3 3 2 1 0 0 1 3 5
0 0 0 0 0 0 1 2 2 1 0 0 0 0 0 1 3 4 4 4 6 8 8 8 9 12 16 20 19 16 13 11 9 7 6 6 5 3 1 0 0 1 3 5
0 0 0 0 0 0 1 1 1 1 0 0 0 0 0 1 3 4 4 4 6 9 8 6 7 11 16 20 20 17 15 12 9 7 6 6 6 4 2 1 2 3 4 4
0 0 0 0 0 0 0 0 0 0 0 0 1 1 0 1 2 4 4 5 7 9 9 7 7 12 18 21 19 18 17 14 10 8 7 6 6 6 5 4 5 5 5 5
0 0 0 0 0 0 0 0 0 0 0 1 2 1 0 0 2 4 5 6 8 10 10 8 8 11 17 20 19 17 16 15 13 12 9 7 6 6 6 5 5 5 5 5
0 0 0 0 0 0 0 0 0 0 0 1 1 1 1 1 3 6 6 7 8 9 10 9 8 10 15 20 20 18 17 16 15 15 11 8 6 6 5 5 5 5 5 4
0 0 0 0 0 0 0 0 0 0 0 0 0 1 1 3 5 8 8 7 8 9 10 9 9 10 14 20 22 20 19 18 18 18 15 12 9 7 5 5 6 6 5 4
0 0 0 0 0 0 0 0 0 0 0 0 0 0 1 3 6 9 10 8 9 10 11 10 10 11 13 18 22 23 23 23 24 24 23 20 15 10 8 8 7 6 5 4
0 0 0 0 0 0 0 0 0 0 0 1 1 1 2 4 7 10 11 11 11 12 13 12 12 13 14 16 22 26 29 30 30 29 29 27 22 16 13 11 9 7 5 4
0 0 0 0 0 0 0 0 0 0 0 1 2 2 2 5 8 11 14 14 14 16 17 16 16 17 18 18 22 27 31 34 34 31 30 29 24 20 18 17 13 8 7 7
0 0 0 0 0 0 0 0 0 0 0 1 1 1 2 4 8 13 16 17 16 19 21 22 21 22 21 21 22 25 29 34 34 31 29 28 25 23 22 21 17 12 11 11
0 0 0 0 0 0 0 0 0 0 0 0 0 1 2 6 11 15 18 19 18 20 23 24 23 23 21 21 22 23 26 31 31 29 28 27 25 24 24 23 20 16 15 14
0 0 0 0 0 0 0 0 0 0 0 0 0 1 4 9 15 18 20 20 19 20 22 23 22 21 19 20 21 23 25 29 29 27 27 26 24 22 21 21 19 18 17 16
0 0 0 0 0 0 0 0 0 1 0 0 1 3 8 14 18 19 21 21 18 17 18 19 21 21 20 20 20 21 23 25 26 25 25 23 21 19 18 17 17 17 16 15
0 0 0 0 0 0 0 0 0 0 0 1 4 8 13 18 19 19 20 20 18 15 14 15 18 19 20 20 18 16 16 17 18 20 19 18 16 15 14 14 14 15 15 14
0 0 0 0 0 0 0 0 0 0 1 4 8 12 16 18 19 19 19 19 17 14 13 14 14 15 16 17 15 13 12 11 12 13 13 13 13 12 11 11 11 12 13 13
0 0 0 0 0 0 0 0 0 1 2 5 9 13 15 17 18 19 20 18 15 13 13 14 13 12 11 11 12 11 10 9 9 10 10 11 11 11 10 9 9 12 13 13
0 0 0 0 0 0 0 0 1 1 3 6 9 12 13 14 16 18 18 16 13 12 12 12 11 9 8 7 8 8 7 6 6 7 8 8 8 9 9 8 8 11 13 13
0 0 0 0 0 0 1 2 1 2 4 6 10 12 13 14 14 15 13 11 9 10 11 10 9 8 7 6 6 6 5 3 3 4 6 6 6 7 8 8 8 10 12 13
0 0 0 1 1 2 3 4 4 4 5 7 9 11 13 14 14 12 9 7 6 6 8 8 7 7 7 6 6 6 5 3 3 4 5 6 6 7 8 9 10 10 11 12
0 0 1 2 3 4 5 7 8 8 7 7 8 9 10 12 13 11 7 5 4 4 4 5 5 6 6 6 6 6 5 4 3 3 3 4 6 8 9 10 11 11 10 10
0 1 2 3 3 3 5 7 8 9 8 7 7 8 8 10 12 11 8 5 4 4 4 4 4 4 4 5 5 4 4 3 2 1 1 3 5 7 8 9 8 8 7 6
0 1 2 3 2 1 2 5 7 9 8 7 7 7 8 9 11 11 8 6 6 5 5 5 4 3 4 4 4 4 3 3 1 0 1 2 4 6 7 6 5 4 3 3

GEFSCGP_con_prob3kmehi_348.txt.gz
EHI
0 0 0 0 0 0 0 0 0 0 0 0 0 1 0 1 3 4 3 3 2 1 0 1 3 4 4 4 4 2 0 0 0 0 0 0 0 0 0 0 0 0 0 0
0 0 0 0 0 0 0 0 0 0 0 0 0 1 0 1 3 3 3 3 3 1 1 2 3 3 4 5 5 3 1 0 0 0 0 1 1 0 0 0 0 0 0 0
0 0 0 0 0 0 1 1 1 0 0 0 0 0 0 0 2 3 3 3 2 1 1 2 3 2 3 4 5 4 2 0 0 1 1 2 2 1 0 0 0 0 0 0
0 0 0 0 0 0 1 2 1 0 0 0 0 0 0 0 1 2 3 3 2 1 2 2 2 1 1 2 3 4 2 1 1 2 3 3 3 2 1 0 0 0 0 0
0 0 0 0 0 0 1 1 1 0 0 0 0 0 0 0 1 2 3 2 1 2 3 3 3 2 2 2 2 3 3 2 3 3 3 3 3 3 2 1 1 0 0 0
0 0 0 0 0 0 0 0 0 0 0 0 0 0 0 0 1 2 3 2 2 3 4 4 4 4 4 3 3 5 5 4 4 4 4 3 3 3 3 3 2 1 1 1
0 0 0 1 0 0 0 0 0 0 0 0 0 0 0 0 1 2 3 2 2 3 3 3 4 5 5 3 4 6 7 6 5 5 4 3 3 3 3 3 3 3 2 2
0 0 0 0 0 0 0 0 0 0 0 0 0 0 0 0 1 2 3 3 2 2 2 2 3 4 4 3 4 6 7 6 5 6 5 4 3 3 3 3 3 3 3 3
0 0 0 0 0 0 0 0 0 0 0 0 0 0 0 1 2 4 4 4 3 2 1 1 2 4 4 3 4 6 7 6 6 6 6 4 3 3 4 4 3 3 3 3
0 0 0 0 0 0 0 0 0 0 0 0 0 0 0 1 3 4 5 5 5 3 1 0 2 4 5 5 4 5 6 6 6 6 6 6 5 5 6 5 4 3 3 3
0 0 0 0 0 0 0 0 0 0 0 0 0 0 0 1 2 4 5 6 6 4 1 0 2 5 7 7 5 4 5 7 7 6 7 8 9 9 8 7 5 4 3 3
0 0 0 0 0 0 0 0 0 0 0 0 0 0 0 1 2 4 6 7 7 6 3 2 4 8 9 8 5 5 6 8 8 7 7 9 11 11 9 7 4 3 2 2
0 0 0 0 0 0 0 0 0 0 0 0 0 0 0 1 3 4 6 7 8 8 6 5 7 9 9 7 5 5 7 8 8 7 6 7 9 11 9 6 3 2 2 3
0 0 0 0 0 0 0 0 0 0 0 0 0 0 0 1 4 5 6 8 8 8 7 7 7 7 6 4 3 4 5 7 7 6 6 6 9 11 10 6 3 3 4 5
0 0 0 0 0 0 0 0 0 0 0 0 0 0 0 2 4 5 5 7 7 7 7 7 6 5 3 2 1 3 5 6 7 7 7 9 10 10 9 7 5 5 6 7
0 0 0 0 0 0 0 0 0 0 0 0 0 0 0 2 5 5 5 6 7 7 9 9 8 7 4 3 2 4 5 6 6 7 8 9 8 6 6 7 7 6 6 7
0 0 0 0 0 0 0 0 0 0 0 0 0 1 2 5 7 7 6 7 8 9 11 12 11 9 7 6 5 5 5 5 6 6 7 6 5 3 3 5 6 6 6 7
0 0 0 0 0 0 0 0 0 1 1 1 1 3 7 10 12 11 10 10 10 10 11 12 11 9 8 6 6 5 4 5 5 5 4 4 2 1 1 2 4 5 5 5
0 0 0 0 0 0 0 0 0 1 2 2 3 7 11 15 16 14 12 11 11 11 10 8 8 8 6 5 4 4 4 4 4 4 3 2 1 1 1 1 1 2 3 4
0 0 0 0 0 0 0 0 0 0 1 2 4 8 11 13 13 12 10 9 9 8 7 5 5 6 5 4 3 3 3 3 3 3 3 1 1 1 2 1 0 1 2 3
0 0 0 0 0 0 0 0 0 0 0 2 5 8 9 9 10 9 7 6 6 4 3 3 3 3 4 3 3 3 3 3 3 3 2 1 0 1 1 0 0 0 1 2
0 0 0 0 0 0 0 0 0 0 1 3 5 7 9 9 9 8 6 4 3 1 1 1 1 1 2 3 3 3 3 3 3 2 1 0 0 0 0 1 1 1 0 1
0 0 0 0 0 0 0 0 0 0 1 3 5 7 9 8 7 6 5 3 1 0 0 0 0 0 1 1 2 2 2 2 2 1 1 0 0 0 0 1 2 2 1 1
0 0 0 1 2 1 1 1 2 2 3 4 5 7 7 6 4 4 3 1 0 0 0 0 0 0 0 0 1 1 1 1 1 1 1 0 0 0 0 0 1 1 2 2
0 0 0 1 2 2 2 3 4 4 4 5 6 7 6 4 3 2 1 0 0 0 0 0 0 0 0 0 0 0 0 0 0 0 0 0 0 0 0 0 0 0 1 2
0 0 0 1 1 2 3 4 4 3 3 5 6 7 6 4 3 1 0 0 0 0 0 0 0 0 0 0 0 0 0 0 0 0 0 0 0 0 0 0 0 0 0 1

GEFSCGP_con_prob3kmehi_354.txt.gz
EHI
0 0 0 0 0 0 0 0 0 0 0 0 0 0 1 1 1 0 0 0 1 2 2 3 2 2 4 8 12 12 11 11 11 11 10 8 5 3 3 4 5 6 4 3
0 0 0 0 0 0 0 0 0 0 0 0 0 0 0 0 0 0 0 0 2 3 4 3 3 4 6 10 13 13 12 12 12 11 11 10 7 5 4 5 7 7 6 5
0 0 0 0 0 0 0 0 0 0 0 0 0 0 0 0 0 0 0 0 1 3 4 5 5 7 9 10 12 13 14 14 14 13 12 11 11 9 7 8 9 8 7 6
0 0 0 0 0 0 0 0 0 0 0 0 0 1 1 1 0 0 1 1 2 3 5 7 8 9 9 8 9 13 16 18 18 16 14 14 14 13 11 11 10 8 6 5
0 0 0 0 0 0 0 0 0 0 0 0 1 1 1 2 1 1 2 3 3 4 7 8 8 8 8 6 7 11 17 20 21 20 18 17 16 15 13 13 11 8 5 4
0 0 1 1 0 0 0 0 0 0 0 0 1 0 1 3 2 1 2 4 5 6 7 7 8 8 7 5 6 9 14 19 21 20 18 17 16 15 16 15 12 8 5 4
0 0 1 1 0 0 0 0 0 0 0 0 1 1 1 3 3 1 2 4 5 7 8 8 9 9 6 5 5 6 10 15 18 18 16 15 15 16 17 17 14 10 7 5
0 0 1 1 0 0 0 0 0 0 0 0 1 1 3 3 3 2 2 4 6 9 11 11 10 9 6 4 4 5 8 13 16 16 16 16 16 15 17 18 15 11 8 7
0 0 0 0 0 0 1 0 0 0 0 0 0 2 3 4 5 4 3 5 8 12 14 13 11 8 7 6 6 6 8 11 14 15 16 16 17 17 19 20 18 14 11 9
0 0 0 0 0 0 0 0 0 0 0 0 0 1 2 4 6 5 6 8 11 14 15 14 11 8 7 8 9 8 8 10 12 14 15 16 18 20 21 22 23 21 18 15
0 0 0 0 0 0 0 0 0 0 0 0 0 0 1 3 4 6 8 10 12 14 14 12 10 8 9 9 10 11 11 11 14 17 17 18 20 21 21 23 25 25 23 21
0 0 0 0 0 0 0 0 0 0 0 0 0 0 1 2 3 5 8 10 11 11 12 11 10 10 11 11 12 14 14 14 17 21 23 22 21 20 19 21 22 23 23 23
0 0 0 0 0 0 0 0 0 0 0 0 0 0 0 0 1 5 7 9 10 12 13 14 13 14 15 15 16 16 16 18 21 24 26 26 23 20 19 18 19 20 20 20
0 0 0 0 0 0 0 0 0 0 0 0 0 0 0 1 2 5 7 9 11 15 17 16 15 17 17 17 17 17 16 18 20 23 24 24 22 20 18 18 17 17 16 15
0 0 0 0 0 0 0 0 0 0 0 0 0 0 1 2 3 6 8 9 12 15 16 14 13 16 18 18 18 17 17 17 17 18 19 19 19 18 17 16 14 12 11 11
0 0 0 0 0 0 0 0 0 0 0 0 0 0 1 3 5 7 10 10 11 13 13 11 12 15 18 19 19 19 19 18 17 17 18 18 18 17 16 14 12 10 9 8
0 0 0 0 0 0 0 0 0 0 0 0 0 1 3 4 5 9 11 11 10 11 11 12 15 17 18 18 19 19 19 19 20 19 17 16 15 15 14 14 12 11 9 8
0 0 0 0 0 0 0 0 0 0 0 0 1 2 4 5 6 8 10 10 9 9 11 14 18 19 17 17 16 16 17 18 19 17 13 11 9 9 11 12 10 10 9 8
0 0 0 0 0 0 0 0 0 0 0 1 1 3 5 6 7 8 10 9 8 8 11 14 17 17 18 16 13 13 14 14 14 12 8 6 4 6 9 10 9 9 8 7
0 0 0 0 0 0 0 0 0 0 0 0 1 4 7 8 9 13 14 12 9 8 10 12 14 16 18 16 12 11 11 10 9 7 4 3 3 4 7 9 10 10 8 6
0 0 0 0 0 0 0 0 0 0 1 1 3 6 9 10 13 18 20 18 13 11 10 10 12 16 17 15 13 11 9 6 4 2 2 2 2 2 4 6 7 8 7 5
0 0 0 0 0 0 0 0 2 2 3 4 6 8 10 13 16 20 23 21 18 15 12 11 12 13 14 13 12 11 8 5 2 0 0 1 1 2 3 3 4 5 4 2
0 0 0 0 1 1 1 2 4 5 5 7 9 10 12 16 18 20 22 20 18 17 14 11 9 8 8 8 8 9 8 6 3 1 1 2 3 3 3 3 3 4 3 1
0 0 0 1 2 2 2 3 5 6 6 8 9 12 16 18 19 19 18 16 15 14 11 8 5 3 4 5 5 6 6 6 4 3 3 4 4 4 4 4 4 4 3 2
1 1 1 2 3 3 4 4 5 7 7 8 11 15 17 18 18 18 16 13 11 10 8 6 2 2 4 4 4 5 4 4 4 3 3 3 3 3 5 5 5 5 4 3
2 2 2 3 3 4 4 4 5 7 8 9 13 17 17 16 18 19 17 12 10 8 7 5 3 2 3 4 4 4 4 3 3 3 3 3 3 3 5 6 6 5 4 2

GEFSCGP_con_prob3kmehi_360.txt.gz
EHI
0 0 0 0 0 0 0 0 0 0 0 0 0 2 5 5 3 4 7 11 12 10 9 11 11 11 15 21 23 24 26 28 27 24 20 18 18 16 15 15 15 13 11 11
0 0 0 0 0 0 0 0 0 0 0 0 0 2 5 5 3 4 8 11 12 10 11 14 16 14 17 23 25 25 28 29 27 25 23 21 19 17 16 17 18 15 13 12
0 0 0 0 0 0 0 0 0 0 0 0 0 2 6 6 4 4 8 12 13 13 14 19 21 18 19 23 25 27 31 32 29 26 24 21 20 18 17 19 20 17 14 13
0 0 0 0 0 0 0 0 0 0 0 0 0 2 7 8 5 4 8 13 16 16 18 20 23 21 20 21 24 28 34 35 31 27 24 22 20 18 17 19 21 19 16 13
0 0 0 0 0 0 0 0 0 0 0 0 0 1 6 10 9 7 10 14 17 18 20 22 25 24 21 20 23 29 36 37 33 29 26 23 21 19 19 22 23 21 18 16
0 0 0 0 0 0 0 0 0 0 0 0 0 1 4 9 12 13 13 15 17 19 22 25 27 26 22 19 21 29 37 38 35 32 28 26 24 22 23 25 25 22 20 18
0 0 0 0 0 0 0 0 0 0 0 0 0 1 3 8 13 15 16 16 16 18 22 24 26 26 24 21 22 30 38 40 37 34 32 30 27 25 26 27 26 23 20 18
0 0 0 0 0 0 0 0 0 0 0 0 0 2 5 8 11 12 14 16 16 17 18 19 22 25 25 23 25 31 37 39 37 35 35 33 30 28 29 31 29 25 22 20
0 0 0 0 0 0 0 0 0 0 0 0 1 3 6 8 9 9 10 13 16 16 17 18 19 22 23 23 25 28 33 36 36 34 33 33 31 31 33 33 32 29 26 23
0 0 0 0 0 0 0 0 0 0 0 0 0 2 4 6 7 8 10 14 17 17 18 18 17 17 19 19 20 23 29 33 33 31 31 30 32 32 32 31 31 31 29 27
0 0 0 0 0 0 0 0 0 0 0 0 0 1 2 2 4 7 13 18 19 18 18 19 18 18 18 17 18 22 27 30 31 31 32 32 32 32 29 29 29 30 31 32
0 0 0 0 0 0 0 0 0 0 0 0 0 0 0 1 3 8 16 22 22 21 22 23 23 22 22 21 23 25 26 28 31 33 35 34 32 31 29 29 29 28 30 31
0 0 0 0 0 0 0 0 0 0 0 0 0 0 0 2 5 10 18 24 24 24 26 26 26 27 26 27 29 29 28 28 30 33 33 32 29 29 29 30 30 29 28 28
0 0 0 0 0 0 0 0 0 0 0 0 0 1 2 5 8 14 21 23 22 23 26 28 30 30 29 29 29 29 28 28 29 30 30 29 29 28 29 29 29 28 26 24
0 0 0 0 0 0 0 1 1 1 1 0 1 3 4 7 11 17 22 22 21 24 28 32 34 32 29 27 26 25 24 26 27 28 29 31 31 31 30 30 28 26 24 22
0 0 0 0 0 0 0 1 2 2 2 1 3 4 4 7 12 19 23 22 23 27 33 36 37 35 31 27 24 21 21 24 26 29 30 32 32 32 30 27 25 25 24 22
0 0 0 0 0 0 0 1 1 2 2 1 3 4 5 7 14 21 23 24 26 32 38 39 39 38 34 29 25 22 22 24 27 28 29 29 28 27 25 21 20 20 19 18
0 0 0 0 0 0 0 0 0 1 1 1 2 4 5 9 16 21 24 28 31 35 38 39 38 36 32 28 25 24 24 25 25 25 25 25 23 21 19 16 14 13 13 12
0 0 0 0 0 0 0 0 0 1 2 2 3 4 5 9 14 19 25 30 34 36 37 38 37 34 28 23 21 22 22 22 21 20 20 20 18 17 15 13 10 9 9 9
0 0 0 0 0 0 0 1 1 1 3 5 6 7 8 11 16 23 29 32 34 35 37 37 36 32 28 23 20 20 20 19 16 15 16 15 13 12 10 9 7 6 7 8
0 0 0 0 0 0 0 1 2 3 5 8 11 13 15 19 25 31 34 33 33 34 36 36 35 32 29 26 25 24 24 21 15 12 11 10 7 5 5 5 5 5 7 8
0 0 0 0 0 0 1 2 4 8 11 13 15 18 23 28 35 37 36 35 34 33 32 31 33 34 29 26 26 28 27 21 15 11 8 6 4 2 2 4 6 6 7 7
1 1 0 0 0 1 1 2 5 11 16 17 19 23 28 33 37 37 36 36 36 33 28 27 31 33 29 24 24 27 24 18 15 11 8 6 3 2 3 4 4 5 5 5
1 2 2 2 2 1 1 2 5 9 14 17 20 23 27 32 36 37 36 36 35 33 29 28 30 32 29 24 23 23 20 15 12 9 8 6 5 4 3 3 2 2 3 3
1 2 3 5 6 4 3 2 3 7 11 14 17 20 22 29 35 37 36 35 34 33 32 31 30 30 27 24 21 19 16 12 9 6 6 5 5 5 4 3 2 1 1 2
2 2 4 7 9 7 4 2 2 6 10 13 16 19 22 29 36 38 37 35 34 33 34 33 31 29 25 21 18 16 13 10 7 4 4 5 6 5 5 4 2 1 0 1

GEFSCGP_con_prob3kmehi_366.txt.gz
EHI
0 0 0 0 0 0 0 0 0 0 0 0 0 0 3 8 10 9 8 6 4 3 3 5 8 11 12 11 10 9 9 8 7 8 8 8 6 5 3 3 3 3 4 5
0 0 0 0 0 0 0 0 0 0 0 0 0 1 3 8 10 11 10 7 5 3 4 7 10 13 16 16 14 12 10 9 8 8 9 9 8 5 4 2 2 3 4 4
0 0 0 0 0 0 0 0 0 0 0 0 0 1 3 6 9 10 10 7 4 5 7 10 14 19 22 22 20 16 13 10 9 9 9 9 9 7 4 3 2 3 3 3
0 0 0 0 0 0 0 0 0 0 0 0 0 1 2 4 6 8 8 6 5 7 11 14 17 21 23 23 22 18 14 11 10 10 10 10 9 7 5 4 4 3 3 3
0 0 0 0 0 0 0 0 0 0 0 0 0 0 1 3 5 7 7 6 7 10 12 16 18 18 19 20 19 17 15 12 10 9 10 10 9 7 5 4 4 3 3 4
0 0 0 0 0 0 0 0 0 0 0 0 0 0 1 3 6 9 9 9 11 13 13 15 16 16 15 17 18 17 16 13 10 8 8 8 8 7 5 4 4 3 4 4
0 0 0 0 0 0 0 0 0 0 0 0 0 0 0 2 5 9 11 12 13 14 14 14 14 14 14 16 19 19 17 14 10 8 8 8 7 6 6 6 5 4 4 4
0 0 0 0 0 0 0 0 0 0 0 0 0 0 0 1 4 8 11 12 13 13 14 14 13 11 11 14 17 18 17 14 12 11 11 11 9 7 7 6 6 5 4 5
0 0 0 0 0 0 0 0 0 0 0 0 0 0 1 2 6 10 11 12 11 13 16 16 13 10 8 10 14 17 17 16 16 15 14 13 11 9 7 6 5 5 5 5
0 0 0 0 0 0 0 0 0 0 0 0 0 0 1 3 7 10 11 11 12 14 17 16 13 10 7 7 12 16 18 18 18 17 15 14 13 11 10 8 7 7 7 6
0 0 0 0 0 0 0 0 0 0 0 0 0 0 1 3 5 8 10 12 15 16 17 16 13 10 8 8 12 17 19 18 17 16 15 14 14 14 12 11 11 11 10 10
0 0 0 0 0 0 0 0 0 0 0 0 0 0 2 4 6 8 11 14 16 16 15 14 12 11 11 12 16 22 22 19 17 16 16 16 16 15 14 14 13 13 12 11
0 0 0 0 0 0 0 0 0 0 0 0 0 1 4 7 9 11 13 15 16 15 13 13 13 14 16 18 21 25 25 23 22 22 20 18 18 17 16 15 15 15 14 13
0 0 0 0 0 0 0 0 0 0 0 0 0 2 6 10 11 12 14 15 16 16 15 15 15 16 17 18 20 21 22 23 24 25 23 20 19 18 16 15 14 15 16 16
0 0 0 0 0 0 0 0 0 0 0 0 1 3 6 9 11 12 13 15 17 18 17 16 14 14 15 16 16 17 18 20 20 21 20 18 16 14 14 13 12 13 15 15
0 0 0 0 0 0 0 0 0 0 0 0 0 1 4 8 13 14 15 16 17 18 17 14 13 14 15 14 14 14 16 17 17 17 16 15 13 11 10 10 9 9 10 10
0 0 0 0 0 0 0 0 0 0 0 0 0 0 4 10 14 15 16 17 17 18 17 15 14 14 14 13 12 12 13 15 16 15 14 12 11 11 9 8 7 7 6 5
0 0 0 0 0 0 0 0 0 0 0 0 1 3 8 13 15 15 16 17 17 19 19 17 15 14 13 12 13 13 14 15 14 13 12 11 11 10 9 6 5 4 3 3
0 0 0 0 0 0 0 0 0 0 1 1 4 8 12 16 17 14 13 16 17 18 19 17 15 14 14 14 16 16 15 14 11 10 9 8 8 8 7 4 2 1 1 1
0 0 0 0 0 0 0 0 0 1 2 2 4 9 13 16 17 14 12 14 16 18 17 15 14 13 13 14 15 14 12 10 8 7 6 5 5 5 4 2 0 0 0 0
0 0 0 0 0 0 0 0 0 2 2 2 3 7 10 14 16 16 16 17 18 18 17 15 13 11 10 11 10 8 6 5 4 4 4 3 3 3 2 1 0 0 0 0
0 0 0 0 0 0 0 0 0 2 3 3 5 7 9 12 16 18 21 22 21 18 16 15 13 10 7 6 5 3 3 3 3 3 3 3 3 2 1 0 0 0 0 0
0 0 0 0 0 0 0 1 1 2 3 5 7 9 10 12 16 19 22 22 19 16 15 14 13 9 6 3 1 1 1 2 2 2 2 2 1 1 0 0 0 0 0 0
1 1 1 1 1 1 1 2 3 4 5 7 8 9 10 13 16 19 19 17 15 14 13 12 12 9 5 2 0 0 0 1 1 1 1 1 0 0 0 0 0 0 0 0
1 2 2 2 2 2 3 3 5 6 9 11 11 11 12 15 17 18 16 14 14 14 12 11 10 7 3 0 0 0 0 0 0 0 0 0 0 0 0 0 0 0 0 0
0 1 1 1 2 3 3 4 5 7 11 15 16 15 15 16 18 17 15 14 14 14 13 12 10 6 2 0 0 0 0 0 0 0 0 0 0 0 0 0 0 0 0 0

GEFSCGP_con_prob3kmehi_372.txt.gz
EHI
0 0 0 0 0 0 0 0 0 0 0 0 0 0 0 0 1 0 0 0 0 0 2 3 4 3 2 3 3 3 3 3 3 3 3 3 2 1 0 0 0 0 0 0
0 0 0 0 0 0 0 0 0 0 0 0 0 0 0 0 1 1 1 0 0 1 3 4 4 4 3 3 3 3 3 3 3 4 4 4 2 1 0 0 0 0 0 0
0 0 0 0 0 0 0 0 0 0 0 0 0 0 0 0 1 2 2 1 1 2 4 4 4 5 5 4 4 3 3 2 3 4 5 4 2 0 0 0 0 0 1 1
0 0 0 0 0 0 0 0 0 0 0 0 0 0 0 0 1 1 2 2 2 3 4 4 5 7 6 4 3 3 2 1 2 3 4 4 2 1 0 0 1 1 2 2
0 0 0 0 0 0 0 0 0 0 0 0 0 0 0 0 0 0 1 3 3 4 4 5 6 6 5 2 1 1 0 0 1 3 4 4 3 2 1 1 2 2 2 2
0 0 0 0 0 0 0 0 0 0 0 0 0 0 0 0 0 0 1 3 4 4 3 3 4 4 2 1 1 2 2 2 2 4 5 5 4 3 1 1 2 1 1 1
0 0 0 0 0 0 0 0 0 0 0 0 0 0 0 0 0 1 2 3 3 2 2 2 2 2 1 2 4 6 6 5 5 6 7 6 5 3 2 2 1 0 0 0
0 0 0 0 0 0 0 0 0 0 0 0 0 0 0 0 0 1 3 4 3 2 1 1 2 2 2 3 6 8 8 7 6 7 6 5 3 3 2 1 0 0 0 1
0 0 0 0 0 0 0 0 0 0 0 0 0 0 0 0 1 2 4 5 4 2 1 1 2 3 3 3 5 7 7 5 4 4 3 2 1 1 1 0 0 0 1 2
0 0 0 0 0 0 0 0 0 0 0 0 0 0 0 1 2 3 4 4 4 3 2 2 3 4 4 4 3 3 4 3 3 3 2 1 0 1 1 0 1 1 2 3
0 0 0 0 0 0 0 0 0 0 0 0 0 0 0 1 2 3 3 3 3 3 3 3 3 4 5 4 3 3 4 4 4 4 3 2 2 3 3 2 2 2 3 3
0 0 0 0 0 0 0 0 0 0 0 0 0 0 0 1 2 3 3 3 3 3 3 2 2 3 4 4 4 5 6 6 5 5 5 4 5 6 6 5 3 2 1 1
0 0 0 0 0 0 0 0 0 0 0 0 0 0 0 1 2 3 3 3 3 3 1 1 2 2 3 4 4 4 6 6 6 7 8 9 10 9 7 5 3 1 1 1
0 0 0 0 0 0 0 0 0 0 0 0 0 0 0 1 2 3 4 4 4 3 2 1 1 1 2 3 2 2 4 6 7 9 11 12 12 9 7 5 3 3 3 3
0 0 0 0 0 0 0 0 0 0 0 0 0 0 0 1 2 4 5 7 7 5 3 2 2 1 2 3 2 1 2 6 9 10 10 9 7 5 4 3 3 3 3 3
0 0 0 0 0 0 0 0 0 0 0 0 0 0 0 1 3 5 7 8 8 6 5 4 3 3 3 3 3 3 3 6 9 9 6 3 2 1 1 1 1 1 2 2
0 0 0 0 0 0 0 0 0 0 0 0 0 0 1 2 4 7 9 9 8 6 5 5 4 3 3 4 5 6 6 6 7 6 4 2 1 0 0 0 0 0 0 1
0 0 0 0 0 0 0 0 0 0 0 0 1 1 2 4 6 7 9 9 8 6 4 4 4 4 4 6 7 8 8 7 6 5 5 4 2 1 0 0 1 0 0 0
0 0 0 0 0 0 0 0 0 0 0 1 2 2 3 5 6 7 8 9 8 5 3 2 3 4 5 6 8 9 8 5 4 4 4 3 2 1 0 0 0 0 0 0
0 0 0 0 0 0 0 0 0 0 0 1 2 3 4 5 5 5 5 6 7 6 3 3 3 4 5 6 7 7 6 3 2 2 2 1 0 0 0 0 0 0 0 0
0 0 0 0 0 0 0 0 0 0 0 0 1 2 3 4 3 2 3 4 6 5 4 3 3 4 4 4 5 5 4 2 1 1 0 0 0 0 0 0 0 0 0 0
0 0 0 0 0 0 0 0 0 0 0 0 1 2 4 4 2 2 3 5 6 5 4 3 3 3 4 3 3 3 2 1 1 0 0 0 0 0 0 0 0 0 0 0
0 0 0 1 1 1 1 0 0 0 0 1 3 5 5 5 4 3 4 7 7 6 4 3 3 4 3 2 2 2 1 1 0 0 0 0 0 0 0 0 0 0 0 0
0 0 1 2 2 2 2 1 0 0 0 2 5 6 6 6 5 3 3 6 6 6 5 4 4 4 3 1 0 1 1 0 0 0 0 0 0 0 0 0 0 0 0 0
0 0 2 3 3 3 3 2 1 0 1 3 5 6 6 5 3 1 2 3 4 5 5 4 3 3 1 0 0 0 0 0 0 0 0 0 0 0 0 0 0 0 0 0
0 0 1 2 2 3 3 2 1 1 2 3 5 5 4 2 1 1 1 1 2 4 5 4 3 1 0 0 0 0 0 0 0 0 0 0 0 0 0 0 0 0 0 0

GEFSCGP_con_prob3kmehi_378.txt.gz
EHI
0 0 0 0 0 0 0 0 0 0 0 0 0 0 1 3 4 5 5 3 3 5 5 3 1 4 9 13 16 18 20 20 19 17 13 8 4 4 5 4 4 4 3 3
0 0 0 0 0 0 0 0 0 0 0 0 0 0 1 3 4 5 5 3 4 6 7 5 4 6 10 14 15 17 20 20 18 17 13 7 4 4 4 4 4 4 3 3
0 0 0 0 0 0 0 0 0 0 0 0 0 0 1 3 4 4 4 4 5 7 10 9 7 8 11 14 14 16 19 19 17 16 12 7 5 5 4 4 5 5 4 3
0 0 0 0 0 0 0 0 0 0 0 0 0 1 2 4 4 4 5 6 7 10 12 11 9 8 10 12 13 14 17 17 15 12 10 8 7 6 6 6 6 6 5 4
0 0 0 0 0 0 0 0 0 0 0 0 0 1 3 4 4 5 8 10 12 13 13 11 8 7 8 8 9 11 13 14 13 11 10 10 9 8 7 7 8 7 6 5
0 0 0 0 0 0 0 0 0 0 0 0 0 0 2 3 3 5 10 14 16 14 13 10 7 6 6 5 5 6 8 10 11 11 11 10 9 9 9 8 8 6 6 6
0 0 0 0 0 0 0 0 0 0 0 0 0 1 2 3 2 5 11 16 16 14 12 10 7 5 5 4 4 4 6 8 10 11 12 11 10 9 9 8 7 6 5 5
0 0 0 0 0 0 0 0 0 0 0 0 0 1 2 3 3 7 13 16 15 12 11 9 6 4 4 4 3 4 7 9 11 12 13 12 10 8 8 7 6 7 7 6
0 0 0 0 0 0 0 0 0 0 0 0 0 1 3 4 5 9 14 15 14 12 11 8 5 3 2 2 3 5 9 12 14 13 12 11 10 9 8 7 7 8 9 8
0 0 0 0 0 0 0 0 0 0 0 0 0 1 2 4 5 9 13 14 15 14 11 9 7 4 4 2 2 4 7 10 12 11 10 9 11 12 10 9 8 9 10 11
0 0 0 0 0 0 0 0 0 0 0 0 0 0 1 3 5 9 13 15 16 15 13 11 10 8 7 6 4 3 4 5 7 8 9 11 13 13 12 10 8 8 10 11
0 0 0 0 0 0 0 0 0 0 0 0 0 0 0 1 4 9 13 15 17 18 16 15 14 12 11 10 7 5 4 4 5 8 11 13 15 15 12 9 7 5 7 8
0 0 0 0 0 0 0 0 0 0 0 0 0 0 0 2 5 8 11 15 19 22 21 20 19 18 15 12 9 7 6 7 7 9 12 15 16 15 12 10 6 4 4 5
0 0 0 0 0 0 0 0 0 0 0 0 0 0 2 4 6 7 10 15 21 25 24 23 23 22 18 12 9 8 7 9 11 13 16 17 17 15 12 9 7 5 3 2
0 0 0 0 0 0 0 0 0 0 0 0 0 1 3 5 7 7 10 15 21 22 22 21 22 22 18 13 10 9 8 9 13 16 19 19 17 14 10 7 6 5 3 2
0 0 0 0 0 0 0 0 0 0 0 0 0 1 3 5 6 8 10 13 17 18 18 18 20 20 17 14 13 12 11 12 14 17 19 19 16 11 7 5 4 4 4 4
0 0 0 0 0 0 0 0 0 0 0 0 0 1 2 4 6 10 12 13 16 18 17 17 18 18 17 15 15 15 15 16 17 18 18 15 12 8 6 4 3 5 6 7
0 0 0 0 0 0 0 0 0 0 0 0 0 1 2 4 7 12 15 16 18 19 19 18 17 17 16 14 14 14 16 18 19 18 15 10 8 7 7 6 5 7 8 8
0 0 0 0 0 0 0 0 0 0 0 0 1 2 2 3 6 12 15 16 17 18 19 19 17 16 15 13 13 14 15 16 16 13 10 8 7 7 7 8 9 9 8 7
0 0 0 0 0 0 0 0 0 0 0 1 2 2 2 3 6 9 11 13 14 15 17 15 14 15 15 12 12 13 13 12 11 8 7 7 7 8 8 10 10 8 7 5
0 0 0 0 0 0 0 0 0 1 1 2 3 3 4 6 8 9 10 11 11 12 13 12 12 15 16 13 11 11 11 10 9 8 8 9 9 8 8 8 7 6 4 3
0 0 0 0 0 1 2 2 2 3 3 3 4 4 6 9 9 9 10 11 11 11 10 10 13 16 17 14 12 11 11 11 10 10 10 10 8 6 5 5 5 4 3 3
0 0 0 0 0 1 2 3 3 3 4 4 5 7 9 10 8 7 9 11 12 10 9 10 13 17 18 16 12 11 11 10 10 10 10 8 5 3 4 5 6 5 4 3
1 0 0 0 0 0 1 3 3 3 4 6 7 8 10 10 8 7 8 12 13 12 11 12 15 18 19 16 12 10 9 9 9 9 8 5 3 2 3 5 6 5 4 3
2 1 1 1 0 0 1 3 3 4 6 7 7 9 11 11 9 8 10 13 16 15 15 17 20 21 20 16 12 10 10 10 10 9 7 4 2 2 2 3 4 3 2 2
3 2 2 2 1 1 2 3 4 6 7 6 7 10 11 10 9 9 11 14 16 17 17 19 22 23 20 15 11 10 11 12 13 10 6 4 3 2 2 2 1 1 1 1

GEFSCGP_con_prob3kmehi_384.txt.gz
EHI
0 0 1 1 1 0 0 0 0 0 0 0 0 1 1 1 2 7 13 12 12 16 19 21 23 23 25 29 33 32 28 23 19 16 15 14 15 14 13 12 12 12 12 13
0 0 0 0 0 0 0 0 0 0 0 0 1 2 3 1 1 6 13 13 13 17 22 24 26 25 26 29 32 31 27 23 19 16 14 14 15 14 12 12 12 12 13 14
0 0 0 0 0 0 0 0 0 0 0 0 1 3 5 4 2 6 14 15 15 18 23 27 31 29 27 29 30 29 26 23 20 16 14 15 15 13 11 11 11 11 12 12
0 0 0 0 0 0 0 0 0 0 0 0 1 3 7 7 6 9 15 17 17 19 23 28 30 30 27 26 28 29 28 24 20 16 14 14 14 12 11 12 12 12 13 12
0 0 0 0 0 0 0 0 0 0 0 0 0 1 6 9 8 12 18 19 18 20 24 27 28 28 25 21 24 29 29 23 18 16 15 14 13 11 12 13 14 16 15 14
0 0 0 0 0 0 0 0 0 0 0 0 0 0 3 7 9 15 21 22 22 24 27 28 28 26 21 17 20 26 28 23 17 16 17 16 13 12 13 14 16 17 17 16
0 0 0 0 0 0 0 0 0 0 0 0 0 0 1 4 9 16 24 27 27 28 28 28 27 23 19 16 19 25 29 26 21 18 18 18 17 14 13 14 16 17 17 16
0 0 0 0 0 0 0 0 0 0 0 0 0 0 1 3 8 16 23 29 31 30 28 27 24 20 17 18 20 26 31 30 27 23 22 23 21 16 12 13 14 14 13 14
0 0 0 0 0 0 0 0 0 0 0 0 0 1 3 5 8 14 22 28 31 29 25 23 21 18 18 20 22 27 33 34 31 28 27 25 23 19 16 16 15 12 11 12
0 0 0 0 0 0 0 0 0 0 0 0 0 1 5 8 10 16 23 28 30 26 22 21 21 21 21 23 24 28 34 35 32 28 26 25 23 22 21 21 19 15 13 13
0 0 0 0 0 0 0 0 0 0 0 0 0 1 3 7 12 18 24 29 29 24 21 21 22 24 25 24 24 27 29 31 29 25 23 23 24 23 22 22 22 20 17 15
0 0 0 0 0 0 0 0 0 0 0 0 0 1 3 7 13 18 24 28 28 23 20 21 22 24 26 25 23 23 24 24 25 23 21 22 24 24 22 22 23 23 20 17
0 0 0 0 0 0 0 0 0 0 0 0 0 1 4 8 13 19 23 26 26 22 19 20 22 26 28 28 25 23 20 20 22 22 21 23 25 25 25 25 25 25 22 21
0 0 0 0 0 0 0 0 0 0 0 0 0 2 5 8 13 19 22 23 22 19 18 20 24 29 33 32 29 26 22 20 22 24 24 25 26 27 28 28 28 25 20 17
0 0 0 0 0 0 0 0 0 0 1 0 0 3 5 8 13 19 22 21 18 16 17 21 26 32 35 36 33 29 26 24 26 28 28 27 27 27 28 27 26 21 14 9
0 0 0 0 0 0 0 0 0 0 0 0 1 3 6 9 14 19 21 19 16 16 19 23 29 34 36 36 33 30 28 27 28 29 28 27 27 26 25 23 20 15 9 6
0 0 0 0 0 0 0 0 0 0 0 0 1 3 5 8 13 17 19 18 18 20 24 26 29 32 34 32 30 28 27 27 29 29 27 25 25 24 22 18 16 12 8 7
0 0 0 0 0 0 0 0 0 0 1 0 1 3 4 6 10 13 17 20 21 24 28 29 28 28 29 29 28 25 24 26 28 28 26 23 23 23 20 18 16 13 10 10
0 0 0 0 0 0 0 0 0 1 1 2 3 4 5 6 9 12 17 21 25 27 30 31 28 27 29 31 29 23 22 24 26 27 26 24 23 23 22 20 19 16 13 13
0 0 0 0 0 0 0 0 0 1 3 6 8 8 8 9 11 14 19 24 27 28 29 30 30 32 34 34 30 25 22 23 25 26 27 26 24 23 22 21 19 17 14 13
0 0 0 0 0 0 0 0 1 3 6 9 10 10 12 13 14 17 22 26 27 26 25 29 34 38 38 36 32 28 25 25 26 27 28 28 24 21 20 19 17 14 13 13
0 0 0 0 0 1 1 2 4 7 8 8 9 11 14 16 17 20 25 27 26 24 22 26 35 40 40 38 35 33 31 31 30 30 30 28 23 19 18 18 15 13 13 13
0 0 0 1 1 2 3 5 7 8 7 6 8 10 13 16 19 22 26 28 26 23 22 24 31 38 41 41 40 38 37 36 33 32 30 26 22 18 15 15 14 13 11 10
0 1 1 2 3 3 5 6 7 6 6 6 7 8 10 13 19 23 25 27 27 25 24 26 29 34 39 41 40 39 38 37 34 31 28 24 21 17 13 13 12 11 8 6
1 2 3 3 4 4 4 4 4 4 5 5 6 7 7 11 16 21 23 26 26 25 25 27 29 32 35 38 38 37 36 34 31 28 24 21 18 16 13 12 10 7 5 3
2 3 3 3 4 5 3 3 3 4 4 4 5 6 7 10 14 18 21 24 24 23 24 26 29 31 35 37 37 37 34 30 29 25 20 17 16 14 13 11 8 5 3 2